Temperature
3 3 4 4 4 4 4 6 6 6 6 6 5 5 4 3 2 2 1 1 2 2 2 2 3 3 4 4 4 4 4 5 5 5 5 5 5 5 5 5 5 5 4 4
2 3 3 3 4 4 4 5 5 4 4 4 4 3 3 2 2 1 1 1 1 1 1 2 2 3 3 3 3 4 4 4 4 4 4 4 4 4 4 4 4 4 4 4
3 3 3 3 3 3 4 4 4 5 4 4 3 2 2 2 1 1 1 0 0 1 1 2 2 2 3 3 3 3 3 3 3 3 4 4 4 4 4 4 4 3 3 3
2 2 2 3 2 2 3 3 3 3 3 2 2 1 1 1 1 1 0 0 0 0 1 1 2 2 2 2 2 3 3 3 3 3 3 3 3 3 3 3 3 3 3 2
1 2 2 2 1 1 1 1 2 1 1 1 0 0 0 -0 0 0 0 -0 -0 0 0 1 1 1 1 2 2 2 2 2 2 2 2 2 2 2 2 2 2 2 2 2
1 2 2 1 0 -1 1 1 1 0 0 0 0 2 1 -1 -1 -0 -0 -0 -0 -0 0 0 0 1 1 1 1 1 1 1 1 1 1 1 2 2 2 2 1 1 1 1
0 1 1 -1 -2 -0 1 1 -1 -1 -1 -1 0 0 -1 -1 -1 -1 -1 -1 -1 -0 -0 -0 -0 -0 0 0 0 0 0 1 1 1 1 1 1 1 1 1 1 1 0 0
-1 0 -0 -2 -1 -1 -1 -2 -2 -2 -2 -2 -2 -2 -2 -2 -2 -2 -2 -1 -1 -1 -1 -1 -1 -1 -1 -1 -0 -0 -0 -0 0 0 0 0 0 0 0 0 -0 -0 -0 -0
-2 -1 -2 -3 -3 -3 -3 -3 -3 -3 -3 -3 -3 -3 -3 -3 -3 -2 -2 -2 -2 -2 -1 -1 -1 -1 -1 -1 -1 -1 -1 -1 -1 -1 -0 -0 -0 -0 -1 -1 -1 -1 -1 -1
-3 -3 -3 -4 -4 -4 -4 -4 -4 -4 -3 -3 -3 -3 -3 -3 -3 -3 -3 -2 -2 -2 -2 -2 -2 -2 -2 -1 -2 -1 -1 -1 -1 -1 -1 -1 -1 -1 -1 -1 -2 -2 -2 -2
-3 -3 -3 -4 -4 -4 -4 -4 -4 -4 -4 -4 -3 -4 -4 -4 -3 -3 -3 -3 -3 -3 -2 -2 -2 -2 -2 -2 -2 -2 -2 -2 -2 -2 -2 -2 -2 -2 -2 -2 -2 -2 -2 -2
-3 -3 -3 -4 -5 -5 -4 -4 -4 -4 -4 -4 -4 -4 -4 -4 -4 -4 -3 -3 -3 -3 -3 -3 -3 -3 -3 -3 -3 -2 -2 -2 -2 -2 -2 -2 -2 -2 -2 -3 -3 -3 -3 -3
-5 -5 -6 -6 -5 -5 -5 -5 -5 -4 -4 -4 -4 -4 -4 -4 -4 -4 -4 -4 -4 -4 -4 -3 -3 -3 -3 -3 -3 -3 -3 -3 -3 -3 -3 -3 -3 -3 -3 -3 -3 -3 -3 -3
-6 -6 -6 -6 -6 -5 -5 -5 -5 -5 -5 -5 -5 -5 -5 -5 -5 -4 -4 -4 -4 -4 -4 -4 -4 -4 -4 -4 -4 -4 -3 -3 -3 -3 -3 -3 -3 -4 -4 -4 -4 -3 -3 -3
-6 -6 -6 -6 -6 -6 -6 -5 -5 -5 -5 -5 -5 -5 -5 -5 -5 -5 -5 -5 -5 -5 -5 -5 -5 -4 -4 -4 -4 -4 -4 -4 -4 -4 -4 -4 -4 -4 -4 -4 -4 -4 -4 -4
-7 -6 -7 -7 -6 -6 -6 -6 -6 -6 -5 -5 -5 -5 -5 -5 -5 -5 -5 -5 -5 -5 -5 -5 -5 -5 -5 -5 -4 -4 -4 -4 -4 -4 -4 -4 -5 -5 -5 -5 -5 -5 -5 -4
-7 -8 -7 -7 -7 -7 -7 -6 -6 -6 -6 -6 -6 -6 -6 -6 -6 -6 -6 -6 -6 -6 -5 -5 -5 -5 -5 -5 -5 -5 -5 -5 -5 -5 -5 -5 -5 -5 -5 -5 -5 -5 -5 -5
-7 -7 -7 -7 -7 -7 -7 -7 -7 -7 -7 -6 -6 -6 -6 -6 -6 -6 -6 -6 -6 -6 -6 -6 -6 -6 -6 -6 -6 -5 -5 -5 -5 -6 -6 -6 -6 -6 -6 -6 -6 -6 -6 -5
-7 -7 -7 -7 -7 -7 -7 -7 -7 -7 -7 -7 -7 -7 -7 -7 -7 -7 -7 -7 -6 -6 -6 -6 -6 -6 -6 -6 -6 -6 -6 -6 -6 -6 -6 -6 -6 -6 -6 -6 -6 -6 -6 -6
-7 -7 -7 -7 -7 -7 -7 -7 -7 -7 -7 -7 -7 -7 -7 -7 -7 -7 -7 -7 -7 -7 -7 -7 -7 -7 -7 -6 -6 -6 -6 -6 -6 -7 -7 -7 -7 -7 -7 -7 -7 -6 -6 -6
-8 -8 -8 -8 -8 -8 -8 -8 -8 -8 -8 -8 -8 -8 -8 -7 -8 -8 -7 -7 -7 -7 -7 -7 -7 -7 -7 -7 -7 -7 -7 -7 -7 -7 -7 -7 -7 -7 -7 -7 -7 -7 -7 -7
-8 -8 -8 -8 -8 -8 -8 -8 -8 -8 -8 -8 -8 -8 -8 -8 -8 -8 -8 -8 -8 -8 -8 -8 -8 -8 -8 -7 -7 -7 -7 -7 -7 -7 -7 -7 -7 -7 -7 -7 -7 -7 -7 -7
-8 -8 -8 -8 -8 -8 -8 -8 -8 -8 -8 -8 -8 -8 -8 -8 -9 -9 -9 -8 -9 -8 -8 -8 -8 -8 -8 -8 -8 -8 -8 -8 -8 -8 -8 -8 -8 -8 -7 -7 -7 -7 -7 -7
-9 -9 -9 -9 -9 -9 -9 -9 -9 -9 -9 -9 -9 -9 -9 -9 -9 -9 -9 -9 -9 -9 -9 -8 -8 -8 -8 -8 -8 -8 -8 -8 -8 -8 -8 -8 -8 -8 -8 -8 -7 -7 -7 -7
-9 -9 -9 -9 -9 -9 -9 -9 -9 -9 -9 -9 -9 -9 -9 -9 -9 -9 -9 -9 -9 -9 -9 -9 -9 -8 -8 -8 -8 -8 -8 -8 -8 -8 -8 -8 -8 -8 -8 -8 -8 -8 -7 -7
-9 -9 -9 -9 -9 -9 -9 -9 -9 -9 -9 -9 -9 -9 -9 -9 -9 -9 -9 -9 -9 -9 -9 -9 -9 -9 -8 -8 -8 -8 -8 -8 -8 -8 -8 -8 -8 -8 -8 -8 -8 -8 -8 -7
-9 -10 -9 -10 -10 -10 -10 -10 -10 -10 -10 -10 -10 -10 -10 -10 -10 -10 -9 -9 -9 -9 -9 -9 -9 -9 -9 -9 -9 -8 -8 -8 -8 -8 -8 -8 -8 -8 -8 -8 -8 -8 -8 -7
Wind_Speed
0 1 4 6 8 8 9 8 7 6 6 5 4 3 2 3 3 3 3 3 4 4 4 4 4 4 4 3 3 3 3 3 2 2 2 2 1 1 1 1 1 1 2 2
1 2 3 3 5 8 9 8 6 6 6 3 2 2 2 3 3 3 3 3 3 3 3 3 3 3 3 3 3 3 3 2 2 2 2 1 1 0 0 1 1 1 2 2
2 2 2 3 5 6 6 5 7 8 6 4 3 3 3 3 4 3 3 3 3 2 2 2 2 2 2 2 2 3 3 2 2 2 1 1 0 0 1 1 1 2 2 3
2 3 5 1 1 3 5 4 4 3 3 4 3 2 1 2 4 3 3 3 3 2 2 2 2 2 2 2 2 2 2 2 2 2 1 0 0 1 1 1 2 2 3 3
2 3 2 2 2 1 3 3 3 4 3 3 3 2 0 0 2 2 2 2 2 2 2 2 2 2 2 2 2 2 2 2 2 2 1 1 1 1 2 2 2 2 3 3
2 2 3 1 3 4 2 2 1 2 3 3 4 4 2 1 1 1 2 2 2 2 3 3 2 2 2 2 2 1 1 2 2 2 2 2 2 2 2 2 2 2 3 3
2 2 1 3 5 2 4 1 2 1 2 2 3 1 1 1 2 2 3 3 2 2 2 2 2 2 2 2 1 2 2 2 2 2 2 2 2 2 2 2 2 2 2 3
1 3 2 4 2 1 2 3 2 1 1 0 1 2 2 2 2 3 3 3 3 2 2 2 2 1 2 1 2 2 1 1 2 2 2 2 2 2 1 1 2 2 2 2
1 1 2 1 2 3 3 2 2 1 1 1 2 2 2 2 2 2 2 2 2 2 2 2 2 2 1 2 2 2 1 1 2 3 2 2 2 2 1 1 1 2 2 2
1 2 3 3 3 3 2 2 2 1 0 1 2 2 2 2 1 1 1 1 1 2 1 1 2 2 2 2 2 2 2 2 2 2 2 2 2 2 1 1 2 2 2 2
3 4 3 3 4 4 3 2 2 2 1 1 2 2 2 1 1 1 1 1 1 1 1 2 2 2 2 2 2 2 2 2 2 2 2 2 2 2 2 2 2 3 2 2
3 3 3 4 5 4 3 2 2 1 1 1 1 2 1 1 0 1 0 0 1 1 1 1 2 2 2 2 2 2 2 2 2 2 2 2 2 2 2 2 3 3 3 3
4 4 3 3 4 3 2 2 2 1 1 1 1 1 1 0 0 0 0 0 0 1 1 1 2 2 3 3 2 2 2 3 2 2 2 2 2 2 2 2 2 2 2 3
4 3 2 3 3 3 2 2 2 3 2 2 1 1 1 1 0 0 1 1 1 1 1 2 2 3 3 3 3 3 3 3 3 2 2 3 3 3 2 2 3 2 2 2
3 3 3 2 2 2 2 2 2 2 2 2 2 1 1 0 0 1 1 1 1 1 1 2 2 3 4 3 3 3 3 2 2 2 3 3 2 2 3 3 3 3 3 2
3 1 1 1 1 2 2 2 1 2 2 1 1 1 1 1 1 1 1 1 1 2 2 3 3 4 4 3 3 3 2 3 3 3 2 2 2 2 2 3 3 3 3 3
2 2 1 2 2 2 2 2 2 2 2 2 2 1 1 1 1 1 2 2 2 2 3 3 4 4 4 3 3 3 2 2 3 3 2 2 2 2 2 3 3 3 3 3
4 4 3 3 3 3 2 2 2 3 3 3 2 1 1 1 1 2 3 3 2 3 3 4 4 4 4 3 3 3 2 2 2 2 2 2 2 2 3 3 3 3 3 4
2 3 3 3 3 3 3 2 3 3 3 2 2 1 2 2 2 3 3 2 3 3 3 3 4 4 3 4 4 3 2 2 2 2 2 3 3 2 2 3 3 3 3 3
2 2 2 2 2 2 2 2 3 3 2 2 1 1 2 2 2 3 3 3 3 3 4 4 4 3 3 3 3 2 2 2 2 2 2 2 2 3 3 3 3 3 3 3
2 1 1 1 1 2 2 2 2 2 2 1 2 2 2 3 3 2 2 3 3 3 3 4 3 3 3 3 3 2 2 2 2 2 2 2 2 3 3 3 3 3 3 4
1 1 1 1 1 2 2 2 2 2 2 1 2 2 2 3 2 2 3 3 3 4 3 3 3 4 4 4 2 2 2 2 2 2 2 3 3 3 3 3 3 4 4 4
2 1 1 1 1 2 2 2 1 1 2 2 2 2 2 3 2 2 2 2 3 4 3 3 4 5 5 3 2 2 2 2 2 2 3 3 3 3 3 4 4 4 4 4
2 1 1 1 1 1 2 2 2 2 2 2 2 2 2 2 2 2 3 4 4 5 3 4 5 4 4 2 2 2 2 2 3 3 3 3 3 3 3 4 4 4 4 4
2 2 2 2 1 2 2 2 2 2 2 1 2 2 2 2 2 3 3 3 4 4 3 3 4 4 3 2 2 2 2 2 3 3 3 3 3 3 3 3 3 4 4 4
2 2 2 2 2 2 2 1 1 1 1 2 2 2 2 2 2 3 3 3 3 3 3 3 3 3 2 2 2 2 2 3 3 3 3 3 3 3 3 3 4 4 4 4
2 2 2 2 2 2 2 1 2 2 2 2 2 2 2 2 2 2 2 2 2 2 2 2 2 2 2 2 2 2 2 2 2 2 2 3 3 3 3 3 3 3 3 3
Wind_Direction
28 176 184 205 209 205 212 223 229 231 230 231 230 224 177 151 134 117 107 100 93 87 81 80 80 82 84 83 85 93 101 111 115 110 109 114 123 151 188 220 229 241 255 267
97 149 157 198 220 214 220 224 227 227 248 239 218 174 171 170 160 149 136 120 105 93 82 75 72 74 77 73 71 80 89 89 95 101 100 103 113 142 221 243 245 252 259 263
201 162 139 224 232 213 206 215 218 231 239 208 202 202 202 182 169 166 158 144 131 113 93 72 61 66 70 68 70 75 76 73 72 85 95 94 102 206 273 268 263 262 266 266
169 170 208 244 348 230 211 231 248 245 220 200 197 204 202 193 179 166 156 147 140 126 91 63 57 63 69 72 74 72 68 58 44 48 47 24 340 290 286 275 265 263 267 269
173 197 244 281 335 291 217 256 278 227 212 187 141 125 186 152 171 172 160 142 121 106 91 75 65 67 81 78 76 68 49 30 19 8 351 324 305 300 292 276 268 269 269 271
183 205 218 319 350 322 246 239 357 205 198 195 191 213 223 122 106 107 113 105 97 87 76 67 56 68 84 77 69 41 3 350 351 350 329 311 304 298 287 272 271 273 273 277
212 217 254 332 317 271 203 277 357 291 228 217 224 245 127 120 95 92 93 88 86 87 72 48 37 62 71 54 13 340 332 332 340 343 324 315 311 300 291 276 275 279 282 289
217 206 240 355 10 204 315 338 329 314 296 223 124 108 109 105 93 94 92 86 81 78 61 38 27 44 53 22 349 336 331 334 337 335 328 315 312 309 303 282 279 282 287 302
231 243 330 339 305 311 313 302 315 315 310 149 134 129 116 107 98 97 96 86 81 86 67 36 20 19 26 346 336 325 324 328 328 326 320 309 304 303 302 287 274 283 289 299
251 287 314 328 332 338 339 327 332 340 301 150 141 142 129 123 114 106 94 76 73 75 57 20 7 359 341 328 322 317 318 322 318 314 314 316 308 302 294 280 273 279 286 294
257 284 309 337 337 329 337 353 13 26 56 137 139 147 147 145 139 118 78 37 37 47 13 344 345 344 339 332 321 313 315 315 312 305 303 313 315 311 296 285 271 266 273 279
269 300 290 307 330 336 348 358 9 38 49 72 131 150 141 130 145 137 105 38 30 16 351 333 336 334 328 319 306 300 304 306 304 302 304 304 308 313 321 294 292 282 277 278
273 300 288 298 331 351 360 355 8 34 73 76 83 138 138 126 70 98 62 7 344 325 318 317 321 323 324 320 306 291 286 291 291 290 289 289 291 290 302 323 319 304 300 295
283 285 285 304 323 344 4 15 38 50 49 57 70 93 105 98 83 30 334 324 318 316 321 317 316 319 323 319 307 294 288 282 279 276 275 274 276 280 279 287 303 312 317 306
305 289 266 293 326 357 18 43 47 39 41 34 38 59 89 98 332 325 326 328 327 332 330 322 314 316 322 317 303 293 286 277 276 273 274 275 274 276 277 278 281 290 301 305
297 293 252 278 313 341 12 26 18 350 358 1 357 358 344 315 305 317 330 337 318 308 311 311 308 312 315 309 299 294 286 280 281 276 276 276 276 274 276 279 282 286 291 297
256 262 269 278 286 299 308 305 299 305 307 302 301 308 307 313 323 330 333 329 308 294 296 296 299 307 306 297 290 284 282 281 282 281 277 278 277 276 278 281 281 284 292 298
251 254 256 256 264 272 283 291 293 296 293 287 286 280 269 264 279 298 309 314 309 301 297 295 298 303 301 296 288 279 272 274 274 274 275 273 276 277 278 280 285 289 294 300
261 257 261 259 261 263 271 284 293 295 293 279 266 261 264 270 276 284 293 293 291 295 306 311 312 308 304 299 294 272 263 265 269 269 267 269 275 275 275 279 284 288 294 298
276 275 271 272 274 270 278 292 297 295 292 275 257 260 271 280 285 283 280 275 276 283 295 301 303 300 298 295 296 279 269 264 263 263 263 263 266 272 276 279 283 287 289 291
279 277 266 269 288 296 289 288 288 287 292 264 243 253 270 284 285 279 276 286 299 298 294 296 300 296 293 294 295 278 267 261 260 261 260 261 264 269 274 277 279 280 284 285
264 257 256 264 280 304 310 304 288 283 284 265 255 260 271 284 290 284 271 273 293 301 301 291 290 290 294 294 283 273 266 262 260 260 261 263 264 268 272 276 278 279 280 280
250 247 252 259 268 294 312 311 297 281 270 265 261 265 272 282 285 279 290 297 300 303 303 289 294 299 304 298 286 276 268 266 266 264 264 265 265 268 272 275 276 277 278 279
240 244 256 272 281 284 300 307 307 294 282 278 272 267 270 279 284 271 275 293 303 305 300 296 306 313 316 301 287 280 275 272 269 266 267 270 272 273 272 273 276 278 278 280
230 236 234 232 243 260 276 290 301 299 293 292 294 289 274 263 264 282 289 288 296 305 303 306 314 317 310 290 284 280 278 275 274 276 276 275 275 275 276 276 276 278 280 281
227 235 241 245 248 256 264 265 267 285 295 303 310 308 299 287 279 281 285 290 293 299 300 296 300 305 296 289 284 282 280 283 286 284 281 280 280 280 280 279 279 278 281 282
229 233 234 243 249 246 244 243 251 267 275 279 291 299 300 296 292 291 290 288 293 294 292 291 291 290 289 288 285 283 280 279 279 278 279 279 281 282 283 284 284 285 286 286
Height
1458 1458 1459 1460 1461 1462 1463 1459 1458 1458 1462 1464 1468 1470 1472 1473 1474 1474 1475 1475 1475 1476 1476 1477 1478 1479 1480 1482 1484 1485 1487 1488 1489 1491 1492 1493 1494 1495 1495 1496 1496 1496 1496 1495
1461 1459 1459 1461 1460 1460 1460 1460 1461 1463 1465 1467 1469 1471 1472 1473 1474 1474 1474 1475 1475 1476 1476 1477 1478 1479 1480 1481 1483 1484 1485 1486 1487 1489 1490 1491 1491 1492 1492 1492 1492 1492 1492 1491
1458 1460 1459 1461 1462 1461 1461 1461 1461 1459 1462 1466 1469 1471 1471 1472 1473 1473 1474 1474 1475 1475 1476 1477 1477 1478 1479 1481 1482 1483 1484 1485 1486 1487 1487 1488 1488 1489 1489 1489 1488 1488 1488 1487
1460 1462 1462 1463 1464 1463 1462 1463 1463 1462 1464 1466 1468 1470 1471 1472 1472 1473 1473 1474 1475 1475 1476 1477 1477 1478 1479 1480 1481 1482 1483 1484 1484 1485 1485 1485 1485 1485 1485 1485 1485 1484 1484 1483
1462 1460 1460 1463 1466 1466 1464 1464 1465 1464 1465 1467 1469 1470 1471 1471 1472 1472 1473 1473 1474 1475 1475 1476 1477 1477 1478 1479 1480 1481 1481 1482 1482 1483 1483 1483 1482 1482 1482 1482 1481 1480 1480 1480
1464 1458 1458 1463 1467 1467 1467 1463 1466 1465 1465 1466 1467 1466 1468 1470 1470 1471 1472 1472 1473 1474 1474 1475 1476 1477 1477 1478 1478 1479 1480 1480 1480 1480 1480 1480 1479 1479 1478 1478 1477 1477 1477 1476
1464 1462 1462 1469 1468 1467 1465 1463 1467 1466 1466 1466 1466 1466 1468 1468 1469 1469 1470 1471 1472 1473 1474 1474 1475 1476 1476 1476 1477 1477 1478 1478 1478 1478 1478 1477 1476 1476 1475 1475 1474 1474 1473 1473
1466 1463 1467 1470 1468 1468 1467 1468 1467 1466 1466 1466 1465 1465 1466 1467 1467 1468 1469 1470 1471 1472 1472 1473 1474 1474 1474 1474 1475 1475 1476 1476 1476 1475 1475 1474 1473 1473 1472 1472 1471 1470 1470 1469
1472 1472 1472 1471 1470 1469 1468 1468 1467 1466 1466 1465 1465 1465 1466 1466 1467 1468 1469 1469 1470 1471 1471 1472 1472 1473 1473 1473 1473 1474 1474 1474 1473 1473 1472 1472 1471 1470 1469 1468 1468 1467 1467 1466
1473 1471 1472 1471 1470 1468 1468 1467 1466 1466 1465 1465 1465 1465 1466 1466 1467 1467 1468 1469 1469 1470 1470 1470 1471 1471 1471 1471 1472 1472 1472 1471 1471 1470 1470 1469 1468 1467 1466 1466 1465 1464 1464 1463
1472 1472 1470 1470 1469 1468 1467 1466 1466 1465 1465 1465 1464 1465 1465 1466 1466 1467 1467 1468 1468 1468 1468 1469 1469 1469 1469 1469 1469 1469 1469 1469 1468 1468 1467 1466 1465 1465 1464 1463 1463 1462 1461 1461
1470 1472 1471 1470 1469 1468 1466 1466 1465 1465 1464 1464 1464 1464 1465 1465 1465 1466 1466 1466 1466 1467 1467 1467 1467 1467 1467 1467 1467 1467 1466 1466 1466 1465 1464 1463 1462 1462 1461 1461 1460 1459 1458 1458
1472 1471 1470 1469 1468 1467 1466 1465 1465 1464 1464 1464 1464 1464 1464 1464 1464 1465 1465 1465 1465 1465 1465 1465 1465 1465 1465 1465 1464 1464 1464 1463 1463 1462 1461 1460 1460 1459 1458 1458 1457 1456 1455 1455
1470 1470 1469 1468 1467 1466 1465 1465 1464 1464 1464 1464 1463 1463 1463 1463 1463 1463 1464 1464 1464 1464 1463 1463 1463 1463 1463 1462 1462 1461 1461 1460 1460 1459 1458 1458 1457 1456 1455 1454 1454 1453 1453 1452
1468 1468 1467 1466 1466 1465 1465 1464 1464 1463 1463 1463 1463 1462 1462 1462 1462 1462 1462 1462 1462 1462 1461 1461 1461 1460 1460 1459 1459 1459 1458 1457 1457 1456 1456 1455 1454 1453 1452 1452 1451 1450 1449 1449
1466 1466 1466 1465 1465 1464 1464 1463 1463 1462 1462 1462 1462 1461 1461 1461 1461 1461 1461 1460 1460 1460 1459 1459 1458 1458 1457 1457 1456 1456 1455 1455 1454 1454 1453 1452 1451 1450 1449 1448 1448 1447 1446 1446
1465 1464 1464 1463 1463 1463 1462 1462 1461 1461 1461 1460 1460 1460 1460 1459 1459 1459 1459 1459 1458 1458 1457 1457 1456 1456 1455 1454 1454 1453 1453 1452 1452 1451 1450 1449 1448 1447 1446 1446 1445 1444 1444 1443
1463 1463 1462 1462 1462 1461 1461 1460 1460 1459 1459 1458 1458 1458 1458 1457 1457 1457 1457 1456 1456 1455 1455 1454 1454 1453 1452 1452 1451 1451 1450 1449 1449 1448 1447 1446 1446 1445 1444 1443 1443 1442 1441 1440
1461 1460 1460 1460 1460 1459 1459 1458 1458 1457 1457 1456 1456 1456 1455 1455 1455 1455 1454 1454 1453 1452 1452 1452 1451 1450 1450 1449 1449 1448 1447 1447 1446 1445 1445 1444 1443 1442 1442 1441 1440 1439 1439 1438
1459 1458 1458 1458 1458 1457 1457 1456 1456 1455 1455 1454 1454 1453 1453 1453 1453 1452 1452 1451 1450 1450 1449 1449 1448 1448 1447 1447 1446 1445 1445 1444 1443 1443 1442 1441 1441 1440 1439 1438 1438 1437 1436 1435
1456 1456 1456 1456 1455 1455 1455 1454 1454 1453 1453 1452 1452 1451 1451 1451 1450 1450 1449 1448 1448 1447 1446 1446 1445 1445 1444 1444 1443 1442 1442 1441 1441 1440 1440 1439 1438 1437 1436 1436 1435 1434 1433 1433
1455 1454 1454 1454 1453 1453 1453 1452 1452 1451 1451 1450 1450 1449 1449 1448 1448 1447 1446 1446 1445 1444 1444 1443 1443 1442 1442 1441 1441 1440 1439 1439 1438 1438 1437 1436 1435 1434 1434 1433 1432 1432 1431 1430
1453 1453 1452 1452 1451 1451 1451 1450 1450 1449 1448 1448 1448 1447 1447 1446 1445 1444 1443 1443 1442 1442 1441 1440 1440 1439 1439 1439 1438 1437 1437 1436 1436 1435 1434 1434 1433 1432 1431 1430 1430 1429 1428 1427
1451 1451 1451 1450 1450 1449 1449 1448 1448 1447 1447 1446 1446 1445 1445 1444 1443 1442 1441 1440 1440 1439 1438 1438 1437 1437 1436 1436 1435 1435 1434 1434 1433 1432 1432 1431 1430 1429 1429 1428 1427 1426 1425 1424
1449 1449 1449 1448 1448 1447 1447 1446 1446 1445 1445 1444 1444 1443 1442 1442 1441 1440 1439 1438 1437 1437 1436 1435 1435 1434 1433 1433 1432 1432 1432 1431 1430 1430 1429 1428 1428 1427 1426 1425 1424 1424 1423 1421
1447 1447 1446 1446 1446 1445 1445 1444 1444 1443 1443 1442 1442 1441 1440 1440 1439 1438 1437 1436 1435 1435 1434 1433 1433 1432 1431 1431 1430 1430 1429 1429 1428 1427 1427 1426 1425 1424 1423 1423 1422 1421 1420 1419
1444 1444 1444 1444 1443 1443 1443 1442 1442 1441 1441 1440 1439 1439 1438 1437 1437 1436 1435 1434 1433 1433 1432 1431 1431 1430 1430 1429 1428 1428 1427 1427 1426 1425 1424 1424 1423 1422 1421 1420 1419 1418 1417 1416